Time,TemperatureF,DewpointF,PressureIn,WindDirection,WindDirectionDegrees,WindSpeedMPH,WindSpeedGustMPH,Humidity,HourlyPrecipIn,Conditions,Clouds,dailyrainin,SoftwareType,DateUTC
2013-01-30 06:34:00,60.8,57.2,28.00,SSW,202,9.0,19.0,88,0.00,,,0.00,Weather View 32 v70,2013-01-30 11:34:00,
2013-01-30 06:35:00,60.8,57.2,28.00,South,180,6.0,19.0,88,0.00,,,0.00,Weather View 32 v70,2013-01-30 11:35:00,
2013-01-30 07:03:00,60.9,57.6,27.99,South,180,9.0,16.0,89,0.00,,,0.00,Weather View 32 v70,2013-01-30 12:03:00,
2013-01-30 07:04:00,60.9,57.6,27.99,SW,225,9.0,16.0,89,0.00,,,0.00,Weather View 32 v70,2013-01-30 12:04:00,
2013-01-30 07:05:00,61.1,57.5,27.99,SW,225,12.0,18.0,88,0.00,,,0.00,Weather View 32 v70,2013-01-30 12:05:00,
2013-01-30 09:05:00,62.6,58.3,27.96,SSW,202,21.0,27.0,86,0.00,,,0.00,Weather View 32 v70,2013-01-30 14:05:00,
2013-01-30 09:17:00,62.5,58.6,27.96,SW,225,12.0,27.0,87,0.00,,,0.00,Weather View 32 v70,2013-01-30 14:17:00,
2013-01-30 09:22:00,62.7,58.8,27.96,SW,225,17.0,27.0,87,0.00,,,0.00,Weather View 32 v70,2013-01-30 14:22:00,
2013-01-30 09:27:00,62.9,58.6,27.96,SSW,202,14.0,27.0,86,0.00,,,0.00,Weather View 32 v70,2013-01-30 14:27:00,
2013-01-30 09:32:00,62.9,58.6,27.96,South,180,11.0,27.0,86,0.00,,,0.00,Weather View 32 v70,2013-01-30 14:32:00,
2013-01-30 09:37:00,63.1,58.8,27.96,South,180,15.0,27.0,86,0.00,,,0.00,Weather View 32 v70,2013-01-30 14:37:00,
2013-01-30 09:42:00,63.1,58.8,27.96,SW,225,15.0,31.0,86,0.00,,,0.00,Weather View 32 v70,2013-01-30 14:42:00,
2013-01-30 09:47:00,63.2,59.3,27.96,SSW,202,17.0,31.0,87,0.00,,,0.00,Weather View 32 v70,2013-01-30 14:47:00,
2013-01-30 09:52:00,63.1,59.2,27.96,SW,225,17.0,31.0,87,0.00,,,0.00,Weather View 32 v70,2013-01-30 14:52:00,
2013-01-30 09:57:00,63.3,59.4,27.96,SW,225,24.0,31.0,87,0.00,,,0.00,Weather View 32 v70,2013-01-30 14:57:00,
2013-01-30 10:02:00,63.3,59.4,27.96,SW,225,14.0,31.0,87,0.00,,,0.00,Weather View 32 v70,2013-01-30 15:02:00,
2013-01-30 10:07:00,63.3,59.4,27.96,SW,225,11.0,31.0,87,0.00,,,0.00,Weather View 32 v70,2013-01-30 15:07:00,
2013-01-30 10:12:00,63.4,59.5,27.96,SW,225,17.0,31.0,87,0.00,,,0.00,Weather View 32 v70,2013-01-30 15:12:00,
2013-01-30 10:17:00,63.4,59.5,27.95,SW,225,12.0,31.0,87,0.00,,,0.00,Weather View 32 v70,2013-01-30 15:17:00,
2013-01-30 10:22:00,63.5,59.5,27.95,SSW,202,14.0,31.0,87,0.00,,,0.00,Weather View 32 v70,2013-01-30 15:22:00,
2013-01-30 10:27:00,63.6,59.6,27.95,SW,225,21.0,31.0,87,0.00,,,0.00,Weather View 32 v70,2013-01-30 15:27:00,
2013-01-30 10:32:00,63.7,59.7,27.95,SW,225,15.0,31.0,87,0.00,,,0.00,Weather View 32 v70,2013-01-30 15:32:00,
2013-01-30 10:37:00,63.7,59.7,27.95,SSW,202,14.0,31.0,87,0.00,,,0.00,Weather View 32 v70,2013-01-30 15:37:00,
2013-01-30 10:42:00,63.6,59.6,27.94,SSW,202,17.0,27.0,87,0.00,,,0.00,Weather View 32 v70,2013-01-30 15:42:00,
2013-01-30 10:47:00,63.6,59.6,27.94,SSW,202,24.0,27.0,87,0.00,,,0.00,Weather View 32 v70,2013-01-30 15:47:00,
2013-01-30 10:52:00,63.6,60.0,27.93,South,180,11.0,27.0,88,0.00,,,0.00,Weather View 32 v70,2013-01-30 15:52:00,
2013-01-30 10:57:00,63.5,59.9,27.93,SSW,202,17.0,27.0,88,0.00,,,0.00,Weather View 32 v70,2013-01-30 15:57:00,
2013-01-30 11:02:00,63.6,60.0,27.93,SSW,202,21.0,27.0,88,0.00,,,0.00,Weather View 32 v70,2013-01-30 16:02:00,
2013-01-30 11:07:00,63.6,60.0,27.94,SW,225,14.0,27.0,88,0.00,,,0.00,Weather View 32 v70,2013-01-30 16:07:00,
2013-01-30 11:12:00,63.6,60.3,27.93,SSW,202,17.0,27.0,89,0.00,,,0.00,Weather View 32 v70,2013-01-30 16:12:00,
2013-01-30 11:17:00,63.3,60.6,27.92,South,180,16.0,27.0,91,0.00,,,0.00,Weather View 32 v70,2013-01-30 16:17:00,
2013-01-30 11:22:00,62.9,60.5,27.91,SW,225,9.0,27.0,92,0.00,,,0.00,Weather View 32 v70,2013-01-30 16:22:00,
2013-01-30 11:27:00,62.9,60.8,27.91,South,180,19.0,27.0,93,0.00,,,0.00,Weather View 32 v70,2013-01-30 16:27:00,
2013-01-30 11:32:00,63.0,60.9,27.91,SW,225,12.0,27.0,93,0.00,,,0.00,Weather View 32 v70,2013-01-30 16:32:00,
2013-01-30 11:37:00,62.9,60.8,27.91,SW,225,17.0,27.0,93,0.00,,,0.00,Weather View 32 v70,2013-01-30 16:37:00,
2013-01-30 11:42:00,62.9,61.1,27.90,South,180,16.0,27.0,94,0.00,,,0.00,Weather View 32 v70,2013-01-30 16:42:00,
2013-01-30 11:47:00,62.7,61.2,27.90,SW,225,13.0,27.0,95,0.00,,,0.00,Weather View 32 v70,2013-01-30 16:47:00,
2013-01-30 11:52:00,62.8,61.3,27.89,SSW,202,16.0,27.0,95,0.00,,,0.00,Weather View 32 v70,2013-01-30 16:52:00,
2013-01-30 11:57:00,62.6,61.7,27.89,SW,225,11.0,27.0,97,0.00,,,0.00,Weather View 32 v70,2013-01-30 16:57:00,
2013-01-30 12:02:00,62.6,61.7,27.88,SSW,202,11.0,27.0,97,0.00,,,0.00,Weather View 32 v70,2013-01-30 17:02:00,
2013-01-30 12:07:00,62.6,61.7,27.88,SW,225,16.0,27.0,97,0.00,,,0.00,Weather View 32 v70,2013-01-30 17:07:00,
2013-01-30 12:13:00,62.5,61.6,27.88,SW,225,12.0,27.0,97,0.00,,,0.00,Weather View 32 v70,2013-01-30 17:13:00,
2013-01-30 12:18:00,62.4,61.5,27.88,SW,225,12.0,27.0,97,0.00,,,0.00,Weather View 32 v70,2013-01-30 17:18:00,
2013-01-30 12:23:00,62.5,61.6,27.87,SW,225,19.0,27.0,97,0.00,,,0.00,Weather View 32 v70,2013-01-30 17:23:00,
2013-01-30 12:28:00,62.5,61.6,27.87,SW,225,14.0,27.0,97,0.02,,,0.02,Weather View 32 v70,2013-01-30 17:28:00,
2013-01-30 12:33:00,62.5,61.9,27.86,South,180,21.0,27.0,98,0.02,,,0.02,Weather View 32 v70,2013-01-30 17:33:00,
2013-01-30 12:38:00,62.5,61.9,27.86,SSW,202,11.0,27.0,98,0.02,,,0.02,Weather View 32 v70,2013-01-30 17:38:00,
2013-01-30 12:43:00,62.7,61.8,27.86,SW,225,20.0,27.0,97,0.02,,,0.02,Weather View 32 v70,2013-01-30 17:43:00,
2013-01-30 12:48:00,62.8,61.9,27.86,SW,225,12.0,27.0,97,0.02,,,0.02,Weather View 32 v70,2013-01-30 17:48:00,
2013-01-30 12:53:00,62.9,62.0,27.85,WSW,247,11.0,27.0,97,0.02,,,0.02,Weather View 32 v70,2013-01-30 17:53:00,
2013-01-30 12:58:00,62.8,62.2,27.86,WSW,247,11.0,27.0,98,0.02,,,0.02,Weather View 32 v70,2013-01-30 17:58:00,
2013-01-30 13:03:00,62.8,61.9,27.86,SW,225,9.0,27.0,97,0.02,,,0.02,Weather View 32 v70,2013-01-30 18:03:00,
2013-01-30 13:08:00,62.9,61.7,27.86,SW,225,11.0,27.0,96,0.02,,,0.02,Weather View 32 v70,2013-01-30 18:08:00,
2013-01-30 13:13:00,63.3,61.8,27.85,SW,225,12.0,27.0,95,0.02,,,0.02,Weather View 32 v70,2013-01-30 18:13:00,
2013-01-30 13:18:00,63.4,61.6,27.85,SW,225,10.0,27.0,94,0.02,,,0.02,Weather View 32 v70,2013-01-30 18:18:00,
2013-01-30 13:23:00,63.5,61.7,27.84,SW,225,19.0,27.0,94,0.02,,,0.02,Weather View 32 v70,2013-01-30 18:23:00,
2013-01-30 13:28:00,63.7,61.6,27.84,South,180,13.0,24.0,93,0.00,,,0.02,Weather View 32 v70,2013-01-30 18:28:00,
2013-01-30 13:33:00,63.4,61.9,27.84,SW,225,16.0,24.0,95,0.00,,,0.02,Weather View 32 v70,2013-01-30 18:33:00,
2013-01-30 13:38:00,63.5,61.7,27.84,SSW,202,7.0,24.0,94,0.00,,,0.02,Weather View 32 v70,2013-01-30 18:38:00,
2013-01-30 13:43:00,63.5,61.7,27.84,SSW,202,9.0,24.0,94,0.00,,,0.02,Weather View 32 v70,2013-01-30 18:43:00,
2013-01-30 13:48:00,63.6,61.8,27.83,SW,225,4.0,24.0,94,0.00,,,0.02,Weather View 32 v70,2013-01-30 18:48:00,
2013-01-30 13:53:00,63.7,61.6,27.83,South,180,6.0,24.0,93,0.00,,,0.02,Weather View 32 v70,2013-01-30 18:53:00,
2013-01-30 13:58:00,64.1,61.4,27.82,SSW,202,13.0,24.0,91,0.00,,,0.02,Weather View 32 v70,2013-01-30 18:58:00,
2013-01-30 14:03:00,64.2,61.2,27.82,South,180,12.0,24.0,90,0.00,,,0.02,Weather View 32 v70,2013-01-30 19:03:00,
2013-01-30 14:08:00,64.2,61.2,27.82,SW,225,12.0,24.0,90,0.00,,,0.02,Weather View 32 v70,2013-01-30 19:08:00,
2013-01-30 14:13:00,64.4,61.1,27.82,WSW,247,9.0,24.0,89,0.00,,,0.02,Weather View 32 v70,2013-01-30 19:13:00,
2013-01-30 14:18:00,64.2,60.2,27.82,WNW,292,7.0,24.0,87,0.00,,,0.02,Weather View 32 v70,2013-01-30 19:18:00,
2013-01-30 14:23:00,62.9,57.0,27.82,NW,315,6.0,23.0,81,0.00,,,0.02,Weather View 32 v70,2013-01-30 19:23:00,
2013-01-30 14:28:00,61.7,56.8,27.82,NNW,337,2.0,22.0,84,0.00,,,0.02,Weather View 32 v70,2013-01-30 19:28:00,
2013-01-30 14:33:00,60.3,56.4,27.82,NNW,337,9.0,22.0,87,0.06,,,0.08,Weather View 32 v70,2013-01-30 19:33:00,
2013-01-30 14:38:00,58.9,57.2,27.83,NW,315,7.0,22.0,94,0.10,,,0.12,Weather View 32 v70,2013-01-30 19:38:00,
2013-01-30 14:43:00,58.2,57.6,27.82,WNW,292,4.0,22.0,98,0.12,,,0.14,Weather View 32 v70,2013-01-30 19:43:00,
2013-01-30 14:48:00,57.6,56.8,27.82,NNW,337,2.0,22.0,97,0.14,,,0.16,Weather View 32 v70,2013-01-30 19:48:00,
2013-01-30 14:53:00,57.1,56.3,27.81,NW,315,3.0,22.0,97,0.16,,,0.18,Weather View 32 v70,2013-01-30 19:53:00,
2013-01-30 14:58:00,56.8,56.0,27.81,NNE,22,1.0,17.0,97,0.18,,,0.20,Weather View 32 v70,2013-01-30 19:58:00,
2013-01-30 15:03:00,56.6,55.8,27.81,NNE,22,1.0,17.0,97,0.20,,,0.22,Weather View 32 v70,2013-01-30 20:03:00,
2013-01-30 15:08:00,56.5,55.7,27.80,North,360,2.0,17.0,97,0.21,,,0.24,Weather View 32 v70,2013-01-30 20:08:00,
2013-01-30 15:13:00,56.3,55.5,27.80,NNE,22,4.0,14.0,97,0.23,,,0.25,Weather View 32 v70,2013-01-30 20:13:00,
2013-01-30 15:18:00,56.2,55.4,27.80,NNE,22,5.0,11.0,97,0.25,,,0.27,Weather View 32 v70,2013-01-30 20:18:00,
2013-01-30 15:23:00,56.0,55.2,27.79,NE,45,5.0,11.0,97,0.26,,,0.29,Weather View 32 v70,2013-01-30 20:23:00,
2013-01-30 15:28:00,55.9,55.1,27.79,NNE,22,4.0,11.0,97,0.28,,,0.30,Weather View 32 v70,2013-01-30 20:28:00,
2013-01-30 15:33:00,55.8,55.0,27.79,North,360,5.0,11.0,97,0.24,,,0.32,Weather View 32 v70,2013-01-30 20:33:00,
2013-01-30 15:38:00,55.7,54.9,27.78,North,360,8.0,9.0,97,0.21,,,0.33,Weather View 32 v70,2013-01-30 20:38:00,
2013-01-30 15:43:00,55.6,54.8,27.78,North,360,11.0,13.0,97,0.21,,,0.35,Weather View 32 v70,2013-01-30 20:43:00,
2013-01-30 15:48:00,55.6,54.8,27.77,ESE,112,2.0,13.0,97,0.20,,,0.36,Weather View 32 v70,2013-01-30 20:48:00,
2013-01-30 15:53:00,55.6,54.8,27.78,NW,315,5.0,13.0,97,0.19,,,0.38,Weather View 32 v70,2013-01-30 20:53:00,
2013-01-30 15:58:00,55.6,54.8,27.78,NW,315,10.0,13.0,97,0.19,,,0.39,Weather View 32 v70,2013-01-30 20:58:00,
2013-01-30 16:03:00,55.6,54.8,27.78,NW,315,7.0,13.0,97,0.18,,,0.40,Weather View 32 v70,2013-01-30 21:03:00,
2013-01-30 16:08:00,55.6,54.8,27.78,South,180,2.0,13.0,97,0.18,,,0.41,Weather View 32 v70,2013-01-30 21:08:00,
2013-01-30 16:13:00,55.6,54.8,27.79,East,90,2.0,13.0,97,0.18,,,0.43,Weather View 32 v70,2013-01-30 21:13:00,
2013-01-30 16:18:00,55.6,54.8,27.77,ESE,112,3.0,13.0,97,0.17,,,0.44,Weather View 32 v70,2013-01-30 21:18:00,
2013-01-30 16:23:00,55.5,54.7,27.77,ESE,112,2.0,13.0,97,0.18,,,0.46,Weather View 32 v70,2013-01-30 21:23:00,
2013-01-30 16:28:00,55.4,54.6,27.78,ESE,112,1.0,13.0,97,0.17,,,0.47,Weather View 32 v70,2013-01-30 21:28:00,
2013-01-30 16:33:00,55.3,54.5,27.77,SE,135,2.0,13.0,97,0.17,,,0.49,Weather View 32 v70,2013-01-30 21:33:00,
2013-01-30 16:38:00,55.3,54.5,27.77,ESE,112,3.0,13.0,97,0.17,,,0.50,Weather View 32 v70,2013-01-30 21:38:00,
2013-01-30 16:43:00,55.2,54.4,27.77,ESE,112,5.0,13.0,97,0.16,,,0.52,Weather View 32 v70,2013-01-30 21:43:00,
2013-01-30 16:48:00,55.1,54.3,27.77,South,180,2.0,11.0,97,0.17,,,0.53,Weather View 32 v70,2013-01-30 21:48:00,
2013-01-30 16:53:00,55.1,54.3,27.79,East,90,3.0,11.0,97,0.17,,,0.54,Weather View 32 v70,2013-01-30 21:53:00,
2013-01-30 16:58:00,55.1,54.3,27.77,ESE,112,5.0,10.0,97,0.17,,,0.56,Weather View 32 v70,2013-01-30 21:58:00,
2013-01-30 17:03:00,54.9,54.1,27.76,East,90,1.0,9.0,97,0.17,,,0.57,Weather View 32 v70,2013-01-30 22:03:00,
2013-01-30 17:08:00,54.9,54.1,27.76,South,180,3.0,6.0,97,0.17,,,0.58,Weather View 32 v70,2013-01-30 22:08:00,
2013-01-30 17:13:00,54.9,54.1,27.78,ENE,67,0.0,6.0,97,0.17,,,0.60,Weather View 32 v70,2013-01-30 22:13:00,
2013-01-30 17:18:00,54.9,54.1,27.78,ESE,112,2.0,6.0,97,0.17,,,0.61,Weather View 32 v70,2013-01-30 22:18:00,
2013-01-30 17:23:00,54.9,54.1,27.76,NE,45,4.0,7.0,97,0.16,,,0.62,Weather View 32 v70,2013-01-30 22:23:00,
2013-01-30 17:28:00,54.8,54.0,27.74,NE,45,0.0,7.0,97,0.16,,,0.63,Weather View 32 v70,2013-01-30 22:28:00,
2013-01-30 17:33:00,54.8,54.0,27.77,South,180,6.0,7.0,97,0.16,,,0.65,Weather View 32 v70,2013-01-30 22:33:00,
2013-01-30 17:39:00,54.9,54.1,27.79,ESE,112,2.0,7.0,97,0.16,,,0.66,Weather View 32 v70,2013-01-30 22:39:00,
2013-01-30 17:43:00,54.8,54.0,27.77,ESE,112,0.0,7.0,97,0.16,,,0.67,Weather View 32 v70,2013-01-30 22:43:00,
2013-01-30 17:48:00,54.8,54.0,27.77,ESE,112,0.0,7.0,97,0.15,,,0.68,Weather View 32 v70,2013-01-30 22:48:00,
2013-01-30 17:53:00,54.7,53.9,27.76,ESE,112,1.0,7.0,97,0.15,,,0.69,Weather View 32 v70,2013-01-30 22:53:00,
2013-01-30 17:59:00,54.7,53.9,27.76,ESE,112,0.0,7.0,97,0.14,,,0.70,Weather View 32 v70,2013-01-30 22:59:00,
2013-01-30 18:04:00,54.6,53.8,27.76,ESE,112,0.0,7.0,97,-0.57,,,0.71,Weather View 32 v70,2013-01-30 23:04:00,
2013-01-30 18:09:00,54.6,53.8,27.75,ESE,112,2.0,7.0,97,0.14,,,0.72,Weather View 32 v70,2013-01-30 23:09:00,
2013-01-30 18:14:00,54.5,53.7,27.75,ESE,112,2.0,7.0,97,0.13,,,0.73,Weather View 32 v70,2013-01-30 23:14:00,
2013-01-30 18:19:00,54.5,53.7,27.76,SE,135,2.0,7.0,97,0.13,,,0.74,Weather View 32 v70,2013-01-30 23:19:00,
2013-01-30 18:24:00,54.4,53.6,27.76,South,180,2.0,7.0,97,0.13,,,0.75,Weather View 32 v70,2013-01-30 23:24:00,
2013-01-30 18:29:00,54.6,53.8,27.76,SSE,157,2.0,7.0,97,0.12,,,0.76,Weather View 32 v70,2013-01-30 23:29:00,
2013-01-30 18:34:00,54.5,53.7,27.76,SSE,157,0.0,6.0,97,0.12,,,0.77,Weather View 32 v70,2013-01-30 23:34:00,
2013-01-30 18:39:00,54.6,53.8,27.74,SE,135,2.0,6.0,97,0.12,,,0.78,Weather View 32 v70,2013-01-30 23:39:00,
2013-01-30 18:44:00,54.5,53.7,27.74,South,180,2.0,6.0,97,0.12,,,0.79,Weather View 32 v70,2013-01-30 23:44:00,
2013-01-30 18:49:00,54.6,53.8,27.74,SE,135,4.0,6.0,97,0.12,,,0.80,Weather View 32 v70,2013-01-30 23:49:00,
2013-01-30 18:54:00,54.6,53.8,27.74,SE,135,1.0,6.0,97,0.12,,,0.81,Weather View 32 v70,2013-01-30 23:54:00,
2013-01-30 18:59:00,54.6,53.8,27.73,SW,225,0.0,6.0,97,0.12,,,0.82,Weather View 32 v70,2013-01-30 23:59:00,
2013-01-30 19:04:00,54.6,53.8,27.72,SW,225,0.0,6.0,97,0.12,,,0.83,Weather View 32 v70,2013-01-31 00:04:00,
2013-01-30 19:09:00,54.6,53.8,27.72,SE,135,2.0,6.0,97,0.12,,,0.84,Weather View 32 v70,2013-01-31 00:09:00,
2013-01-30 19:14:00,54.6,53.8,27.72,South,180,2.0,6.0,97,0.12,,,0.85,Weather View 32 v70,2013-01-31 00:14:00,
2013-01-30 19:19:00,54.6,53.8,27.73,South,180,1.0,6.0,97,0.12,,,0.86,Weather View 32 v70,2013-01-31 00:19:00,
2013-01-30 19:24:00,54.6,53.8,27.72,South,180,2.0,6.0,97,0.12,,,0.87,Weather View 32 v70,2013-01-31 00:24:00,
2013-01-30 19:29:00,54.5,53.7,27.72,SW,225,2.0,6.0,97,0.12,,,0.88,Weather View 32 v70,2013-01-31 00:29:00,
2013-01-30 19:34:00,54.6,53.8,27.71,South,180,2.0,6.0,97,0.11,,,0.88,Weather View 32 v70,2013-01-31 00:34:00,
2013-01-30 19:39:00,54.6,53.8,27.71,SE,135,2.0,5.0,97,0.11,,,0.89,Weather View 32 v70,2013-01-31 00:39:00,
2013-01-30 19:44:00,54.6,53.8,27.70,South,180,0.0,5.0,97,0.11,,,0.90,Weather View 32 v70,2013-01-31 00:44:00,
2013-01-30 19:49:00,54.6,53.8,27.70,South,180,0.0,5.0,97,0.11,,,0.91,Weather View 32 v70,2013-01-31 00:49:00,
2013-01-30 19:54:00,54.6,53.8,27.68,South,180,1.0,5.0,97,0.11,,,0.92,Weather View 32 v70,2013-01-31 00:54:00,